Tracking 19489 objects as of 23-Jan-2019
HD Live streaming from Space Station
objects crossing your sky now

SL-14 R/B

Track SL-14 R/B now!
10-day predictions
SL-14 R/B is classified as:


NORAD ID: 20511
Int'l Code: 1990-018B
Perigee: 624.2 km
Apogee: 648.7 km
Inclination: 82.5 °
Period: 97.3 minutes
Semi major axis: 7007 km
RCS: 4.7836 m2 (large)
Launch date: February 28, 1990
Source: Commonwealth of Independent States (former USSR) (CIS)
Launch site: PLESETSK MISSILE AND SPACE COMPLEX (PKMTR)

Note: This is a ROCKET BODY
aabbcc
Your satellite tracking list
Your tracking list is empty




NASA's NSSDC Master Catalog

Two Line Element Set (TLE):
1 20511U 90018B   19021.87076434  .00000031  00000-0  99481-6 0  9990
2 20511  82.5246 130.5489 0017479   4.1872 135.3202 14.80001609558393
Source of the keplerian elements: AFSPC